Location: NJAA Observatory
(40.6819°N, 74.8979°W)
Time: 14:45:47
(UTC-04:00)

Cosmos 2237 Rocket - Visible Passes

Search period start: 30 August 2016 00:00
Search period end: 09 September 2016 00:00
Orbit: 834 x 851 km, 71.0° (Epoch: 29 August)

Date Brightness Start Highest point End Pass type
(mag) Time Alt. Az. Time Alt. Az. Time Alt. Az.
30 Aug 4.2 01:39:40 23° N 01:39:40 23° N 01:42:11 10° N visible
31 Aug 4.3 01:25:05 22° N 01:25:05 22° N 01:27:24 10° N visible
01 Sep 4.4 01:10:27 21° N 01:10:27 21° N 01:12:36 10° N visible
02 Sep 4.4 00:55:48 21° N 00:55:48 21° N 00:57:48 10° N visible
03 Sep 4.4 00:41:07 20° N 00:41:07 20° N 00:43:00 10° N visible
04 Sep 4.5 00:26:25 20° N 00:26:25 20° N 00:28:12 10° NNE visible
05 Sep 4.5 00:11:40 20° N 00:11:40 20° N 00:13:24 10° NNE visible
05 Sep 4.4 23:56:54 20° N 23:56:54 20° N 23:58:36 10° NNE visible
06 Sep 4.4 23:42:04 20° N 23:42:04 20° N 23:43:48 10° NNE visible
07 Sep 4.3 23:27:11 20° N 23:27:11 20° N 23:28:59 10° NNE visible
08 Sep 4.2 23:12:14 22° N 23:12:14 22° N 23:14:11 10° NNE visible
